Location: Grand Moustoir
(47.8355°N, 3.3120°W)
Time: 09:17:04
(UTC+00:00)

H-2A R/B - Pass Details

Date: 20 January 2020
Orbit: 503 x 540 km, 97.3° (Epoch: 06 February)

Event Time Altitude Azimuth Distance (km) Brightness Sun altitude
Rises 06:18:11 0° 15° (NNE) 2,711 6.4 -15.8°
Reaches altitude 10° 06:20:20 10° 19° (NNE) 1,813 5.5 -15.5°
Maximum altitude 06:24:13 60° 100° (E) 621 3.4 -14.8°
Drops below altitude 10° 06:28:03 10° 181° (S) 1,788 5.6 -14.2°
Sets 06:30:10 0° 185° (S) 2,670 6.5 -13.9°
